METEOR 2-17 DEB, 45521

Orbit data source: Space-Track

METEOR 2-17 DEB, 45521 is space debris in LEO originally from a launch on Sat, 30 Jan 1988 UTC launched from the Plesetsk Missile And Space Complex (PKMTR). Debris objects in space refer to the collection of defunct objects orbiting the Earth. Examples of debris include non-operational satellites, rocket bodies, and fragments generated from explosions, collisions, or faulty payload assembly.

Loading next visibility...
Identifier
45521, 1988-005BB
Orbit
LEO
Country
Flag of CISCIS
Related business
Manufacturer
Unknown
Mission
Spacecraft
Bus & Motor
Unknown
Mass
Unknown
Launch date (UTC)
1988-01-30 (38 years ago)
Launch vehicle
Unknown
Launch site
Plesetsk Missile And Space Complex (PKMTR)
Object type
Payload
Rocket body
Debris
Shape & HBR
Unknown shape, 0.1 m
Radar Cross Section
Small (<0.1 m²)

Expand to show TLE details & history
Last TLE update: 21 hours ago

TLE from 21 hours ago
0 METEOR 2-17 DEB
1 45521U 88005BB  25351.51744606  .00001172  00000-0  83358-3 0  9998
2 45521  82.5067  71.6075 0017772 136.2776 223.9802 13.96691334612458
Epoch: 2025-12-17T12:25Z
TLE epoch observation values (Epoch: 2025-12-17T12:25:07.339Z)
Latitude
-0.00006°
Longitude
158.94075°
Altitude
917.521 km
Speed
7.388 km/s
True Right ascension
04h 46m 25s
True Declination
0° 00' 00"
Sunlit
Object was in full shadow at epoch
Visualization orbit readout
Latitude
Unknown
Longitude
Unknown
Altitude
Unknown
Speed
Unknown
Apparent Right ascension
Unknown
Apparent Declination
Unknown
Sunlit
N/A
Visualization observer readout
Local Sidereal Time
08:20:45
Azimuth
Unknown
Elevation
Unknown
Doppler factor
Unknown
Orbital elements
Apogee altitude
915.35 km
Perigee altitude
889.472 km
Semi-major axis
7,280.548 km
Eccentricity
0.00178
Inclination
82.5067°
RAAN
71.6075°
Arg. of periapsis
136.2776°
True anomaly
223.83901°
Mean anomaly
223.9802°
Eccentric anomaly
223.90958°
Mean motion
3.49379 °/min
Orbital period
103.04 mins
BSTAR
0.00083358
Loading maneuver chart data...
Computing Atmospheric mass density...
Loading historical data...
Loading historical data...
Loading historical data...
Loading historical data...
Loading historical data...
Loading historical data...
Loading historical data...

Documentation

Showing up to 5 results
|